Regional Weather Roundup
Issued by NWS

Home | Current Version | Previous Version | Text Only | Print | Product List | Glossary Off
Versions: 1 2 3 4 5 6 7 8 9 10 11 12 13 14 15 16 17 18 19 20 21 22 23 24 25 26 27 28 29 30 31 32 33 34 35 36 37 38 39 40 41 42 43 44 45 46 47 48 49 50

000
ASUS43 KLSX 220259
RWRMO

WEATHER SUMMARY FOR MISSOURI
NATIONAL WEATHER SERVICE SPRINGFIELD MO
1000 PM CDT MON JUL 21 2014

NOTE: "FAIR" INDICATES FEW OR NO CLOUDS BELOW 12,000 FEET WITH NO
       SIGNIFICANT WEATHER AND/OR OBSTRUCTIONS TO VISIBILITY.
       CURRENT SKY AND/OR WEATHER CONDITIONS ARE NOT AVAILABLE FOR
       CHILLICOTHE AND FARMINGTON.

MOZ001>031-035>038-043-044-053-054-220400-
...NORTHERN AND WESTERN MISSOURI...

CITY           SKY/WX    TMP DP  RH WIND       PRES   REMARKS
KANSAS CTY INT MOCLDY    83  73  72 S12       29.97R
KANSAS C DTWN  CLEAR     86  75  69 S9        29.96R HX  95
LEE`S SUMMIT   CLEAR     83  74  74 S8        29.99R
ST JOSEPH      PTCLDY    83  73  72 S10       29.94R
CHILLICOTHE      N/A     83  75  77 S6        29.98R HX  90
KIRKSVILLE     CLEAR     75  70  84 SE7       30.01R

$$
MOZ066>068-077>081-088>096-101>105-220400-
...SOUTHWEST MISSOURI...

CITY           SKY/WX    TMP DP  RH WIND       PRES   REMARKS
SPRINGFIELD    CLEAR     78  67  68 SE9       30.05R
JOPLIN         CLEAR     78  71  79 S5        30.03R

$$
MOZ032>034-039>042-045>050-055>058-069>072-220400-
...CENTRAL MISSOURI...

CITY           SKY/WX    TMP DP  RH WIND       PRES   REMARKS
COLUMBIA       CLEAR     77  68  73 SE6       30.03R
JEFFERSON CITY CLEAR     79  68  69 E7        30.01R
ROLLA          CLEAR     74  66  76 SE8       30.05R
SEDALIA        CLEAR     78  71  79 S7        30.01R
OSAGE BEACH    CLEAR     77  66  69 S5        30.03R

$$
MOZ051-052-059>065-220400-
...EAST CENTRAL MISSOURI...

CITY           SKY/WX    TMP DP  RH WIND       PRES   REMARKS
ST LOUIS INTL  CLEAR     82  65  56 SE8       30.06R
SPIRIT OF STL  CLEAR     78  67  68 S3        30.04R
ST CHARLES     CLEAR     75  67  76 SE7       30.04R

$$
MOZ072>076-082>087-097>100-106>115-220400-
...SOUTH CENTRAL AND SOUTHEAST MISSOURI...

CITY           SKY/WX    TMP DP  RH WIND       PRES   REMARKS
CAPE GIRARDEAU CLEAR     71  67  87 CALM      30.07R
FARMINGTON     CLEAR     72  66  83 S3        30.11R
POPLAR BLUFF   CLEAR     69  65  86 CALM      30.06R
WEST PLAINS    CLEAR     72  66  81 SE3       30.10R

$$



USA.gov is the U.S. government's official web portal to all federal, state and local government web resources and services.